{"data":{"norad_id":52473,"epoch":"2026-09-19T14:29:08.260512Z","epoch_age_seconds":140674,"freshness":"FRESH","line1":"1 52473U 22049Y   26262.60356783 -.00001853  00000+0 -45033-4 0  9991","line2":"2 52473  53.1605 258.2047 0001238  70.3964 289.7171 15.33544830241664","mean_motion":15.3354483,"eccentricity":0.0001238,"inclination_deg":53.1605,"raan_deg":258.2047,"arg_perigee_deg":70.3964,"mean_anomaly_deg":289.7171,"bstar":-4.5033e-5,"rev_number":24166,"period_min":93.900091593671,"perigee_km":464.39895591152,"apogee_km":466.09337758361,"semimajor_km":6843.3831667476,"source":"CELESTRAK","updated_at":"2026-09-20T09:00:40.052037Z"}}